{"data":{"norad_id":58082,"intl_designator":"2023-160H","name":"STARLINK-30610","alt_names":[],"object_type":"PAYLOAD","status":"ACTIVE","operator":null,"country":"US","launch_date":"2023-10-18","launch_site_code":"AFETR","launch_vehicle":null,"mission":null,"orbit_class":"UNKNOWN","rcs_meters":null,"size_class":null,"mass_kg":null,"dimensions":null,"purposes":["comms"],"wikipedia_slug":null,"has_3d_model":false,"image_url":null,"decayed_at":null,"tle_current":{"epoch":"2026-09-20T03:52:56.173728Z","epoch_age_seconds":169711,"freshness":"FRESH","line1":"1 58082U 23160H   26263.16176127 -.00000524  00000+0 -94975-5 0  9996","line2":"2 58082  43.0057  59.9676 0001936 260.1163  99.9471 15.27572648162683","mean_motion":15.27572648,"eccentricity":0.0001936,"inclination_deg":43.0057,"raan_deg":59.9676,"arg_perigee_deg":260.1163,"mean_anomaly_deg":99.9471,"bstar":-9.4975e-6,"rev_number":16268,"period_min":94.26720240673,"perigee_km":481.74278077059,"apogee_km":484.39944055104,"semimajor_km":6861.2081106608,"source":"CELESTRAK","updated_at":"2026-09-21T09:00:33.782709Z"}}}